Weather History for KLAX - January, 2012

Change the Weather History Date:

Friday, January 6, 2012

  Actual Average Record
Temperature  
Mean Temperature 63 °F 56 °F  
Max Temperature 73 °F 65 °F 86 °F (2006)
Min Temperature 52 °F 49 °F 34 °F (1950)
Degree Days  
Heating Degree Days 2 9  
Month to date heating degree days 8 54  
Since 1 July heating degree days 549 496  
Cooling Degree Days 0 0  
Month to date cooling degree days 10 0  
Year to date cooling degree days 10 0  
Growing Degree Days 12 (Base 50)    
Moisture  
Dew Point 44 °F    
Average Humidity 58    
Maximum Humidity 93    
Minimum Humidity 22    
Precipitation  
Precipitation 0.00 in 0.09 in 3.23 in (1993)
Month to date precipitation 0.00 0.54  
Year to date precipitation 0.00 0.54  
Since 1 July precipitation 3.00 4.55  
Sea Level Pressure  
Sea Level Pressure 29.98 in    
Wind  
Wind Speed 3 mph (WSW)    
Max Wind Speed 12 mph    
Max Gust Speed -    
Visibility 9 miles    
Events      
T = Trace of Precipitation, MM = Missing Value Source: NWS Daily Summary

Daily Weather History Graph

Daily Weather History Graph

Search for Another Location

Airport or City:

Trip Planner

Search our weather history database for the weather conditions in past years. The results will help you decide how hot, cold, wet, or windy it might be!

Date:

Astronomy

Jan. 06, 2012 Rise Set
Actual Time 6:59 AM PST 4:59 PM PST
Civil Twilight 6:31 AM PST 5:26 PM PST
Nautical Twilight 6:00 AM PST 5:57 PM PST
Astronomical Twilight 5:30 AM PST 6:28 PM PST
Moon 2:55 PM PST (1/6) 4:42 AM PST (1/6)
Length of Visible Light 10h 54m
Length of Day
9h 59m
Waxing Gibbous, 94% of the Moon is Illuminated
Jan 6
Waxing Gibbous
Jan 8
Full
Jan 16
Last Quarter
Jan 22
New
Jan 30
First Quarter

Hourly Weather History & Observations

Time (PST) Temp. Dew Point Humidity Pressure Visibility Wind Dir Wind Speed Gust Speed Precip Events Conditions
12:53 AM 59.0 °F 39.9 °F 49% 29.98 in 10.0 mi Calm Calm - N/A   Clear
1:00 AM - - N/A% - - North - - N/A   Unknown
1:53 AM 55.9 °F 41.0 °F 57% 29.99 in 10.0 mi Calm Calm - N/A   Clear
2:53 AM 54.0 °F 41.0 °F 62% 29.98 in 10.0 mi Calm Calm - N/A   Clear
3:53 AM 54.0 °F 37.9 °F 55% 29.97 in 10.0 mi Calm Calm - N/A   Clear
4:53 AM 53.1 °F 37.0 °F 55% 29.97 in 10.0 mi Calm Calm - N/A   Clear
5:53 AM 54.0 °F 36.0 °F 51% 29.98 in 10.0 mi Calm Calm - N/A   Clear
6:53 AM 55.0 °F 35.1 °F 47% 29.99 in 10.0 mi Calm Calm - N/A   Partly Cloudy
7:53 AM 57.0 °F 37.0 °F 47% 30.01 in 10.0 mi Calm Calm - N/A   Partly Cloudy
8:53 AM 62.1 °F 32.0 °F 32% 30.03 in 10.0 mi ESE 5.8 mph - N/A   Partly Cloudy
9:53 AM 66.0 °F 36.0 °F 33% 30.04 in 10.0 mi Variable 5.8 mph - N/A   Partly Cloudy
10:53 AM 69.1 °F 32.0 °F 25% 30.02 in 9.0 mi Variable 4.6 mph - N/A   Partly Cloudy
11:53 AM 71.1 °F 30.9 °F 23% 29.99 in 8.0 mi Variable 3.5 mph - N/A   Partly Cloudy
12:53 PM 66.0 °F 52.0 °F 60% 29.97 in 6.0 mi West 11.5 mph - N/A   Haze
1:53 PM 64.9 °F 48.9 °F 56% 29.97 in 9.0 mi WSW 11.5 mph - N/A   Partly Cloudy
2:53 PM 64.0 °F 48.0 °F 56% 29.97 in 10.0 mi West 8.1 mph - N/A   Partly Cloudy
3:53 PM 61.0 °F 52.0 °F 72% 29.97 in 8.0 mi West 8.1 mph - N/A   Partly Cloudy
4:53 PM 59.0 °F 52.0 °F 78% 29.96 in 8.0 mi West 6.9 mph - N/A   Clear
5:53 PM 59.0 °F 51.1 °F 75% 29.96 in 10.0 mi West 4.6 mph - N/A   Partly Cloudy
6:53 PM 57.0 °F 53.1 °F 87% 29.97 in 8.0 mi West 5.8 mph - N/A   Clear
7:53 PM 57.9 °F 53.1 °F 84% 29.97 in 8.0 mi Calm Calm - N/A   Clear
8:53 PM 57.0 °F 51.1 °F 81% 29.98 in 8.0 mi Calm Calm - N/A   Clear
9:53 PM 57.0 °F 53.1 °F 87% 29.99 in 8.0 mi Calm Calm - N/A   Clear
10:53 PM 55.9 °F 53.1 °F 90% 29.99 in 6.0 mi Calm Calm - N/A   Partly Cloudy
11:53 PM 54.0 °F 51.1 °F 90% 29.98 in 7.0 mi Calm Calm - N/A   Partly Cloudy